This is the latest recevied weather packets stored in our database for station/object WD9EKA. If no packets are shown the sender has not sent any weather packets the latest 10 day(s).
| Time | Temp. | Humidity | Pressure | Rain* | Wind** | Luminosity | Snow |
|---|---|---|---|---|---|---|---|
| 1787421813 | 26.11° C | 73% | 1010.4 hPa | 0 mm | - | - | - |
| 1787421453 | 26.67° C | 71% | 1010.2 hPa | 0 mm | - | - | - |
| 1787421092 | 26.11° C | 73% | 1010.3 hPa | 0 mm | - | - | - |
| 1787420732 | 26.11° C | 73% | 1010.3 hPa | 0 mm | - | - | - |
| 1787420372 | 26.11° C | 74% | 1010.3 hPa | 0 mm | - | - | - |
| 1787420012 | 26.11° C | 74% | 1010.5 hPa | 0 mm | - | - | - |
| 1787419652 | 26.11° C | 70% | 1010.1 hPa | 0 mm | - | - | - |
| 1787419293 | 26.11° C | 71% | 1010.4 hPa | 0 mm | - | - | - |
| 1787418933 | 25.56° C | 71% | 1010.4 hPa | 0 mm | - | - | - |
| 1787418572 | 25.56° C | 72% | 1010.4 hPa | 0 mm | - | - | - |
| 1787418213 | 25.56° C | 72% | 1010.5 hPa | 0 mm | - | - | - |
| 1787417852 | 25° C | 73% | 1010.3 hPa | 0 mm | - | - | - |
| 1787417492 | 25° C | 74% | 1010.5 hPa | 0 mm | - | - | - |
| 1787417132 | 25° C | 74% | 1010.6 hPa | 0 mm | - | - | - |
| 1787416772 | 25° C | 78% | 1010.2 hPa | 0 mm | - | - | - |
| 1787416412 | 25° C | 76% | 1010.2 hPa | 0 mm | - | - | - |
| 1787416052 | 25° C | 75% | 1010.3 hPa | 0 mm | - | - | - |
| 1787415692 | 25° C | 76% | 1010.3 hPa | 0 mm | - | - | - |
| 1787415332 | 25° C | 77% | 1010.1 hPa | 0 mm | - | - | - |
| 1787414972 | 25.56° C | 76% | 1010.3 hPa | 0 mm | - | - | - |
| 1787414612 | 25° C | 77% | 1010.4 hPa | 0 mm | - | - | - |
| 1787414252 | 24.44° C | 79% | 1010.1 hPa | 0 mm | - | - | - |
| 1787413892 | 24.44° C | 81% | 1010.2 hPa | 0 mm | - | - | - |
| 1787413532 | 24.44° C | 82% | 1010.1 hPa | 0 mm | - | - | - |
| 1787413172 | 24.44° C | 83% | 1009.9 hPa | 0 mm | - | - | - |
* Rain latest hour (hover to see other rain measurements)
** Current wind speed in m/s (hover to see current wind gust speed)